FW0689 Weather Reports


Display with metric or nautical units.
time (UTC)temp
F
wind
direction
speed
MPH
gust
MPH
rain 1hr
in
rain 24hr
in
rain mn
in
humidity
%
barometer
mb
20260902155023 66 211 0.0 0.0 0.00 0.00 0.00 37 1024.0
20260902154122 66 223 0.0 0.0 0.00 0.00 0.00 38 1023.9
20260902153122 66 232 0.0 0.0 0.00 0.00 0.00 38 1024.0
20260902145122 66 247 0.0 0.0 0.00 0.00 0.00 38 1024.1
20260902142221 67 246 0.0 0.0 0.00 0.00 0.00 39 1024.0
20260902141225 67 248 0.0 0.0 0.00 0.00 0.00 38 1024.0
20260902140322 68 253 0.0 0.0 0.00 0.00 0.00 38 1024.0
20260902135322 68 273 0.0 0.0 0.00 0.00 0.00 38 1023.8
20260902134322 68 257 0.0 0.0 0.00 0.00 0.00 38 1023.8
20260902133322 67 255 0.0 0.0 0.00 0.00 0.00 38 1023.9
20260902132323 68 267 0.0 0.0 0.00 0.00 0.00 38 1023.8
20260902132222 68 250 0.0 0.0 0.00 0.00 0.00 38 1023.9
20260902131223 67 293 0.0 0.0 0.00 0.00 0.00 38 1023.9
20260902130221 68 250 0.0 0.0 0.00 0.00 0.00 38 1023.8
20260902125225 69 241 0.0 0.0 0.00 0.00 0.00 38 1023.8
20260902124322 68 244 0.0 0.0 0.00 0.00 0.00 37 1023.8
20260902123320 66 246 0.0 0.0 0.00 0.00 0.00 38 1023.9
20260902122322 66 232 0.0 0.0 0.00 0.00 0.00 38 1023.9
20260902121322 66 243 0.0 0.0 0.00 0.00 0.00 39 1024.0
20260902120322 66 227 0.0 0.0 0.00 0.00 0.00 39 1024.0
20260902120222 66 239 0.0 0.0 0.00 0.00 0.00 39 1024.1
20260902114222 67 233 0.0 0.0 0.00 0.00 0.00 39 1024.0
20260902113222 68 246 0.0 0.0 0.00 0.00 0.00 39 1024.0
20260902112222 68 256 0.0 0.0 0.00 0.00 0.00 37 1023.9
20260902110223 68 218 0.0 0.0 0.00 0.00 0.00 37 1024.0
20260902105222 68 242 0.0 0.0 0.00 0.00 0.00 39 1024.0
20260902104320 69 207 0.0 0.0 0.00 0.00 0.00 38 1024.0
20260902103322 69 235 0.0 0.0 0.00 0.00 0.00 38 1024.0
20260902102321 69 223 0.0 0.0 0.00 0.00 0.00 38 1024.1
20260902101322 69 238 0.0 0.0 0.00 0.00 0.00 38 1024.0
20260902100324 69 217 0.0 0.0 0.00 0.00 0.00 38 1024.0
20260902095322 68 194 0.0 0.0 0.00 0.00 0.00 38 1024.0
20260902094324 68 223 0.0 0.0 0.00 0.00 0.00 38 1024.1
20260902093323 68 220 0.0 0.0 0.00 0.00 0.00 38 1024.2
20260902092322 67 253 0.0 0.0 0.00 0.00 0.00 38 1024.0
20260902090325 66 236 0.0 0.0 0.00 0.00 0.00 39 1024.0
20260902085423 66 224 0.0 0.0 0.00 0.00 0.00 39 1024.0
20260902084521 65 225 0.0 0.0 0.00 0.00 0.00 39 1024.2
20260902082621 64 206 0.0 0.0 0.00 0.00 0.00 40 1024.0
20260902081622 63 217 0.0 0.0 0.00 0.00 0.00 40 1024.0
20260902080621 63 202 0.0 0.0 0.00 0.00 0.00 41 1024.1
20260902075624 61 197 0.0 0.0 0.00 0.00 0.00 41 1024.1
20260902074621 61 200 0.0 0.0 0.00 0.00 0.00 41 1024.1
20260902073624 61 204 0.0 0.0 0.00 0.00 0.00 41 1024.0
20260902072624 61 217 0.0 0.0 0.00 0.00 0.00 41 1024.1
20260902071623 61 216 0.0 0.0 0.00 0.00 0.00 41 1023.9
20260902065620 60 198 0.0 0.0 0.00 0.00 0.00 41 1024.0
20260902064622 58 201 0.0 0.0 0.00 0.00 0.00 42 1024.0
20260902063621 58 196 0.0 0.0 0.00 0.00 0.00 42 1023.8
20260902062622 57 200 0.0 0.0 0.00 0.00 0.00 42 1023.9
20260902060623 56 135 0.0 0.0 0.00 0.00 0.00 43 1023.8
20260902055620 56 167 0.0 0.0 0.00 0.00 0.00 43 1023.9
20260902054623 56 112 0.0 0.0 0.00 0.00 0.00 43 1023.8
20260902053722 55 112 0.0 0.0 0.00 0.00 0.00 43 1024.0
20260902052722 55 180 0.0 0.0 0.00 0.00 0.00 43 1023.8
20260902050722 55 202 0.0 0.0 0.00 0.00 0.00 43 1023.9
20260902045720 54 202 0.0 0.0 0.00 0.00 0.00 43 1023.8
20260902044723 54 135 0.0 0.0 0.00 0.00 0.00 43 1023.7
20260902043722 54 112 0.0 0.0 0.00 0.00 0.00 44 1023.7
20260902042720 54 180 0.0 0.0 0.00 0.00 0.00 44 1023.8
20260902041722 54 112 0.0 0.0 0.00 0.00 0.00 44 1023.8
20260902040722 53 112 0.0 0.0 0.00 0.00 0.00 44 1023.9
20260902034822 53 112 0.0 0.0 0.00 0.00 0.00 44 1024.0
20260902033823 53 112 0.0 0.0 0.00 0.00 0.00 44 1024.0
20260902032824 53 112 0.0 0.0 0.00 0.00 0.00 44 1024.0
20260902031921 53 112 0.0 0.0 0.00 0.00 0.00 44 1024.1
20260902031021 53 112 0.0 0.0 0.00 0.00 0.00 44 1024.2
20260902030022 53 112 0.0 0.0 0.00 0.00 0.00 44 1024.2
20260902025021 53 112 0.0 0.0 0.00 0.00 0.00 44 1024.4
20260902023021 52 112 0.0 0.0 0.00 0.00 0.00 43 1024.4
20260902022022 52 112 0.0 0.0 0.00 0.00 0.00 44 1024.5
20260902021023 52 112 0.0 0.0 0.00 0.00 0.00 43 1024.5
20260902020022 52 112 0.0 0.0 0.00 0.00 0.00 44 1024.5
20260902015023 52 112 0.0 0.0 0.00 0.00 0.00 44 1024.4
20260902014023 52 112 0.0 0.0 0.00 0.00 0.00 44 1024.5
20260902013122 52 112 0.0 0.0 0.00 0.00 0.00 44 1024.5
20260902010321 51 112 0.0 0.0 0.00 0.00 0.00 44 1024.5
20260902005337 51 112 0.0 0.0 0.00 0.00 0.00 44 1024.5
20260902004422 51 112 0.0 0.0 0.00 0.00 0.00 44 1024.7
20260902003521 50 112 0.0 0.0 0.00 0.00 0.00 45 1024.7
20260902002539 50 112 0.0 0.0 0.00 0.00 0.00 43 1024.6
20260902001623 50 112 0.0 0.0 0.00 0.00 0.00 43 1024.6
20260901235622 51 112 0.0 0.0 0.00 0.00 0.00 44 1024.6
20260901234622 51 112 0.0 0.0 0.00 0.00 0.00 44 1024.5
20260901233623 51 112 0.0 0.0 0.00 0.00 0.00 44 1024.7
20260901232722 51 112 0.0 0.0 0.00 0.00 0.00 44 1024.7
20260901230920 51 112 0.0 0.0 0.00 0.00 0.00 44 1025.0
20260901225937 52 112 0.0 0.0 0.00 0.00 0.00 44 1024.9
20260901224923 52 112 0.0 0.0 0.00 0.00 0.00 44 1024.7
20260901223921 52 112 0.0 0.0 0.00 0.00 0.00 44 1024.7
20260901222921 52 112 0.0 0.0 0.00 0.00 0.00 44 1024.7
20260901221920 52 112 0.0 0.0 0.00 0.00 0.00 44 1025.1
20260901220923 52 112 0.0 0.0 0.00 0.00 0.00 44 1025.0
20260901215935 52 337 0.0 0.0 0.00 0.00 0.00 42 1025.3
20260901214934 52 337 0.0 0.0 0.00 0.00 0.00 43 1025.3
20260901214033 52 337 0.0 0.0 0.00 0.00 0.00 43 1025.3
20260901213035 52 337 0.0 0.0 0.00 0.00 0.00 43 1025.5
20260901212050 52 337 0.0 0.0 0.00 0.00 0.00 43 1025.4
20260901210131 53 337 0.0 0.0 0.00 0.00 0.00 43 1025.6
20260901204132 53 67 0.0 0.0 0.00 0.00 0.00 43 1025.3
20260901202132 54 67 0.0 0.0 0.00 0.00 0.00 43 1025.2
20260901201132 54 67 0.0 0.0 0.00 0.00 0.00 42 1025.0
20260901200134 54 67 0.0 0.0 0.00 0.00 0.00 41 1025.0
20260901195134 55 67 0.0 0.0 0.00 0.00 0.00 42 1024.9
20260901194231 55 67 0.0 0.0 0.00 0.00 0.00 42 1024.9
20260901193233 55 67 0.0 0.0 0.00 0.00 0.00 42 1025.0
20260901192234 55 295 0.0 0.0 0.00 0.00 0.00 42 1025.0
20260901190332 57 270 0.0 0.0 0.00 0.00 0.00 41 1025.1
20260901185332 58 292 0.0 0.0 0.00 0.00 0.00 41 1025.0
20260901184332 58 292 0.0 0.0 0.00 0.00 0.00 41 1025.0
20260901183334 60 292 0.0 0.0 0.00 0.00 0.00 41 1024.9
20260901182335 61 292 0.0 0.0 0.00 0.00 0.00 40 1025.0
20260901181332 62 292 0.0 0.0 0.00 0.00 0.00 40 1024.9
20260901175347 64 300 0.0 0.0 0.00 0.00 0.00 40 1024.9
20260901174431 64 291 0.0 0.0 0.00 0.00 0.00 40 1024.9
20260901173433 64 292 0.0 0.0 0.00 0.00 0.00 39 1024.7
20260901172432 64 291 0.0 0.0 0.00 0.00 0.00 40 1024.7
20260901170434 65 313 0.0 0.0 0.00 0.00 0.00 40 1024.6
20260901164433 65 291 0.0 0.0 0.00 0.00 0.00 40 1024.6
20260901163432 66 288 0.0 0.0 0.00 0.00 0.00 41 1024.4
20260901161432 67 274 0.0 0.0 0.00 0.00 0.00 41 1024.3
20260901160436 67 287 0.0 0.0 0.00 0.00 0.00 41 1024.2
20260901155532 66 266 0.0 0.0 0.00 0.00 0.00 41 1024.2